Temperature
15 15 15 15 14 14 14 14 14 14 14 14 14 13 13 13 13 13 13 13 13 13 13 13 13 14 14 14 14 14 14 14 14 14 14 14 14 14 14 15 15 15 15
16 15 15 15 14 14 14 14 14 14 14 14 14 13 13 13 13 13 13 13 13 13 13 13 13 13 13 13 13 14 14 14 14 14 14 14 14 14 14 14 14 14 14
16 15 15 15 15 14 14 14 14 14 14 14 14 13 13 13 13 13 13 13 13 13 13 13 13 13 13 13 13 13 13 13 13 13 13 13 13 14 14 14 14 14 14
16 15 15 15 15 14 14 14 14 14 14 14 13 13 13 13 13 13 13 13 13 13 13 13 13 13 13 13 13 13 13 13 13 13 13 13 13 13 13 13 13 14 14
16 15 15 15 15 14 14 14 14 14 14 14 14 14 14 14 14 14 13 13 13 13 13 13 13 13 13 13 13 13 13 13 13 13 13 13 13 13 13 13 13 13 13
16 16 15 15 15 15 14 14 14 14 14 14 14 14 14 14 13 13 13 13 13 13 13 13 13 13 13 13 13 13 13 13 13 13 13 13 13 13 13 13 13 13 13
16 16 16 15 15 15 14 14 14 14 14 14 14 13 14 14 14 14 13 13 13 13 13 13 13 13 13 13 13 13 13 13 13 13 13 13 13 13 13 13 13 13 13
16 16 16 15 15 15 15 14 14 14 14 14 14 14 14 14 14 14 13 13 13 13 13 13 13 13 13 13 13 13 13 13 13 13 13 13 13 13 13 13 12 12 13
17 16 16 16 15 15 15 14 14 14 14 14 14 14 14 14 14 14 14 13 13 13 13 13 13 13 13 13 13 13 13 13 12 12 12 12 13 13 13 12 12 12 12
17 16 16 16 16 15 15 15 14 14 14 14 14 14 14 14 14 13 13 13 13 13 13 13 13 13 13 13 13 13 12 12 12 12 12 12 12 12 12 12 12 12 12
17 17 16 16 16 15 15 15 14 14 14 14 14 14 14 14 13 13 13 13 13 13 13 13 13 13 13 13 13 13 12 12 12 12 12 12 12 12 12 12 12 12 12
17 17 16 16 15 15 15 15 14 14 14 14 14 14 14 13 13 13 13 13 13 13 12 12 12 12 12 12 12 12 12 12 12 12 12 12 12 12 12 12 12 12 12
17 17 16 16 15 15 15 15 14 14 14 14 14 13 13 13 13 13 13 13 12 12 12 12 12 12 12 12 12 12 12 12 12 11 12 11 11 11 11 11 11 11 11
17 17 16 16 15 15 15 14 14 14 14 14 13 13 13 13 13 13 13 12 12 12 12 12 12 12 11 11 11 11 11 11 11 11 11 11 11 11 11 11 11 11 11
17 17 16 16 15 15 14 14 14 14 14 14 13 13 13 13 13 13 12 12 12 12 12 11 11 11 11 11 11 11 11 11 11 10 10 10 10 10 10 10 10 10 10
16 16 16 15 15 15 14 14 14 13 13 13 13 13 13 13 12 12 12 12 12 11 11 11 11 10 10 10 10 10 10 10 10 10 10 10 10 10 10 10 10 9 9
16 16 16 15 15 14 14 14 13 13 13 13 13 13 12 12 12 12 12 11 11 11 11 10 10 10 10 10 9 9 9 9 9 9 9 9 9 9 8 9 8 8 8
16 16 15 15 15 14 14 13 13 13 13 12 12 12 12 12 12 11 11 11 10 10 10 10 9 9 9 9 8 8 8 8 8 8 8 8 8 8 8 7 7 7 7
15 15 15 15 14 14 13 13 13 12 12 12 12 12 11 11 11 11 10 10 10 9 9 9 8 8 8 8 8 8 7 7 7 7 7 7 7 7 7 6 6 6 6
15 15 15 14 14 13 13 13 12 12 12 12 11 11 11 10 10 10 9 9 9 9 8 8 8 8 7 7 7 7 7 6 6 6 6 6 6 6 6 6 5 5 5
15 14 14 14 13 13 13 12 12 12 12 11 11 11 10 10 10 9 9 9 8 8 7 7 7 7 7 6 6 6 6 6 6 6 6 5 5 5 5 5 4 4 4
14 14 14 13 13 12 12 12 12 11 11 11 10 10 9 9 9 8 8 8 7 7 7 6 6 6 6 6 6 5 5 5 5 5 5 5 4 4 4 4 3 3 3
13 13 12 12 12 12 12 11 11 11 10 10 10 9 9 8 8 8 7 7 7 6 6 6 6 5 5 5 5 5 5 4 4 4 4 4 4 3 3 3 2 2 2
12 12 12 11 11 11 11 10 10 10 10 9 9 9 8 8 8 7 7 6 6 6 5 5 5 5 5 4 4 4 4 4 4 3 3 3 3 2 2 2 2 1 1
11 11 11 11 10 10 10 10 9 9 9 9 8 8 8 7 7 7 6 6 6 5 5 5 4 4 4 4 4 4 3 3 3 3 3 3 2 2 1 1 1 1 1
10 10 10 10 10 9 9 9 9 8 8 8 8 7 7 7 6 6 6 5 5 5 4 4 4 4 3 3 3 3 3 3 3 3 2 2 2 1 1 1 0 0 -0
Wind_Speed
3 3 3 2 1 1 1 1 2 2 2 2 2 3 2 2 2 1 1 2 2 1 0 1 1 2 1 0 1 1 1 1 1 1 1 1 1 1 2 3 5 5 6
4 3 3 2 2 1 1 2 2 2 2 2 3 3 3 3 2 2 1 1 1 1 1 1 1 1 1 0 1 0 1 1 2 1 0 0 0 1 2 3 3 4 4
5 4 3 2 1 1 1 1 2 2 1 1 2 2 3 3 2 2 1 1 1 1 1 1 1 1 1 1 1 1 1 1 1 1 1 0 1 1 1 2 2 2 3
5 5 3 3 2 1 1 1 2 3 2 2 1 2 2 3 4 4 3 1 1 2 2 1 1 2 2 2 1 1 1 1 1 1 1 1 1 1 0 1 1 1 2
6 5 4 3 3 1 1 1 1 2 4 3 2 2 2 2 3 5 5 3 2 2 2 2 2 4 4 2 1 2 2 0 0 1 1 1 1 0 1 1 1 1 2
7 6 5 4 4 3 1 1 1 1 2 3 2 2 3 3 4 5 5 4 3 1 1 1 1 3 2 2 1 1 1 0 0 1 1 1 2 2 1 1 1 1 2
7 7 6 4 4 3 2 1 1 1 0 2 2 2 2 3 3 4 5 3 2 2 1 0 0 2 2 0 2 3 2 3 3 1 1 2 2 1 1 1 1 2 3
7 8 7 5 5 4 2 1 2 1 1 1 1 0 1 2 2 2 4 3 2 1 1 0 1 1 1 1 1 1 2 2 3 3 2 2 1 1 1 1 2 2 3
8 8 8 7 5 4 3 2 2 1 1 1 2 1 1 2 1 1 3 2 1 0 1 2 2 2 3 3 2 1 1 2 3 3 4 4 4 3 2 0 1 1 3
8 8 7 7 6 5 4 3 2 2 2 2 2 1 2 3 2 1 2 2 2 1 1 2 4 3 3 3 2 2 2 3 2 2 2 4 4 5 6 4 3 2 2
8 7 7 7 7 6 4 3 2 2 2 2 2 1 2 3 4 3 2 1 2 2 1 1 2 4 4 3 2 1 2 4 3 3 3 2 2 1 2 3 3 3 3
8 8 7 7 6 6 5 4 3 3 3 3 2 1 1 3 4 3 2 1 2 2 2 1 1 1 2 2 2 2 5 5 2 2 2 2 1 1 1 1 1 2 2
8 8 7 7 6 5 5 4 2 2 2 1 1 1 0 2 2 2 2 2 1 1 1 2 2 2 2 2 2 3 3 2 2 2 2 2 2 1 1 1 2 2 3
9 9 8 7 6 5 4 3 2 1 1 1 0 0 0 2 2 1 0 1 1 0 1 2 2 2 1 2 2 2 1 1 1 1 2 2 3 3 2 2 1 2 2
9 9 8 7 6 6 4 2 3 2 2 2 1 1 1 2 2 2 2 1 1 0 1 1 1 2 2 3 3 3 3 3 3 3 3 3 3 3 3 3 2 2 2
8 8 7 7 6 7 6 4 5 4 5 6 5 4 3 4 3 3 4 4 4 2 2 1 2 2 3 3 3 4 4 4 4 4 4 3 3 3 3 3 3 3 3
7 6 6 6 7 7 7 7 5 3 4 5 4 5 4 3 2 2 2 4 4 3 3 2 2 2 2 3 3 3 3 4 4 4 4 4 4 3 3 3 3 4 4
6 7 6 6 6 7 7 7 7 7 5 3 2 4 5 4 2 1 1 3 3 3 3 3 3 3 3 3 3 3 3 3 3 4 4 4 4 4 4 4 4 4 4
6 5 5 5 6 6 5 6 6 7 6 6 5 3 5 4 2 2 2 2 3 3 3 3 3 3 3 3 3 3 3 3 3 3 4 4 4 4 4 4 4 5 4
5 7 6 5 5 5 5 5 5 5 6 6 6 5 5 4 3 2 2 2 3 3 3 3 3 3 3 3 2 2 2 3 3 3 3 3 4 4 4 4 4 4 4
5 6 7 5 4 5 5 5 5 5 5 6 5 5 7 5 4 4 3 3 3 3 3 3 3 3 3 3 3 3 4 3 4 4 4 4 4 4 4 4 4 4 4
4 5 5 5 4 4 4 4 4 5 6 7 5 6 7 5 5 4 4 4 4 3 3 3 3 3 3 2 3 3 3 3 4 4 4 4 4 4 4 4 5 5 5
4 5 5 4 4 5 5 5 5 6 6 6 7 6 5 5 5 5 5 4 4 4 3 3 3 3 3 3 4 4 4 3 3 4 4 4 4 4 4 5 6 7 6
5 5 5 5 5 5 5 5 5 6 6 6 6 6 6 5 5 5 5 5 5 4 4 3 3 4 5 4 6 7 7 6 6 5 5 5 5 4 4 5 6 7 7
5 5 5 5 5 5 5 5 5 6 5 6 6 6 6 6 5 5 5 5 5 4 4 4 3 4 5 6 6 6 6 6 6 6 6 5 5 5 5 6 6 6 7
4 4 4 5 5 5 5 5 5 6 5 5 5 5 5 5 5 5 5 5 5 4 4 4 4 5 5 7 7 5 5 5 6 7 7 4 4 5 5 5 7 6 7
Wind_Direction
174 169 150 161 191 259 289 321 313 330 346 347 351 353 3 4 6 47 37 37 1 7 52 109 162 136 120 184 135 157 185 153 180 293 3 83 146 149 164 186 191 190 197
166 168 156 166 168 223 308 320 322 338 344 353 12 5 7 11 5 31 32 28 355 0 27 38 38 104 116 91 93 114 153 173 165 175 297 347 48 203 195 202 204 198 192
159 168 165 165 158 192 285 312 316 321 332 6 47 21 360 353 2 10 13 344 343 27 50 57 42 66 71 76 129 126 151 140 132 162 214 305 250 243 216 224 223 207 217
165 170 171 164 154 191 265 299 321 334 340 5 50 37 15 8 5 2 358 7 5 29 51 65 71 73 54 29 42 41 82 108 143 175 200 225 242 259 213 229 256 237 238
168 168 170 167 153 162 285 294 29 346 339 345 26 47 47 40 18 15 356 360 28 31 38 45 80 96 90 81 58 19 20 38 195 191 212 240 249 243 236 247 260 270 257
167 167 162 171 155 159 224 308 42 332 327 332 11 43 54 41 38 31 11 346 351 10 53 51 115 117 130 148 180 186 134 149 297 266 248 237 245 230 219 232 246 279 275
169 160 161 173 159 168 195 187 218 230 296 320 355 42 75 64 37 17 357 333 321 328 351 66 78 95 116 219 251 231 241 251 242 247 268 278 282 277 219 243 253 245 252
168 163 165 174 167 170 186 211 240 231 188 267 293 44 115 91 64 8 339 314 296 322 347 320 127 80 57 4 287 221 207 231 228 219 218 248 286 335 333 246 243 277 287
171 169 168 169 166 172 186 209 233 245 231 244 236 209 172 121 85 2 348 306 295 291 34 31 64 83 33 26 357 306 276 269 250 229 224 233 241 259 250 46 308 293 286
170 171 165 164 167 177 186 198 214 234 244 248 242 209 160 150 147 80 26 331 320 342 61 73 61 67 48 39 6 335 322 310 317 305 267 257 245 239 226 205 206 228 268
163 164 159 161 171 178 177 181 205 222 243 259 260 229 165 146 141 130 96 5 337 339 4 45 51 61 50 26 6 357 312 312 309 300 281 265 252 227 217 216 207 206 232
156 160 163 168 179 175 166 181 200 213 230 244 247 249 183 141 134 153 167 230 328 341 348 21 67 64 34 360 341 318 328 335 314 311 320 323 319 294 267 250 255 259 252
158 164 169 173 172 160 162 177 192 205 219 237 223 220 137 113 112 118 199 250 305 2 4 3 334 306 309 311 295 313 329 339 339 346 339 328 317 305 329 329 323 324 324
170 173 173 175 168 156 151 160 157 171 205 228 99 22 77 90 60 42 331 266 274 325 305 306 297 308 329 330 341 345 357 9 17 353 343 349 357 6 1 343 327 332 328
180 178 175 171 161 149 138 126 143 135 154 171 143 83 75 79 50 51 70 54 50 24 351 28 37 36 30 25 22 22 22 22 20 11 14 13 9 5 352 354 352 343 330
186 181 173 166 161 157 151 134 80 110 114 113 108 116 103 107 116 86 67 51 40 59 77 62 52 50 43 32 26 20 25 26 15 12 13 13 9 2 355 356 3 0 345
182 176 171 170 170 169 167 165 159 125 90 90 110 118 125 121 107 93 74 58 43 69 85 74 66 64 54 43 36 32 22 15 13 18 18 10 7 3 3 1 1 360 347
179 177 174 172 173 176 176 175 171 170 170 165 148 151 150 145 140 140 130 98 70 78 83 79 76 70 63 52 40 36 30 22 22 22 21 16 12 10 11 5 2 359 344
177 177 177 173 172 171 172 176 176 173 167 156 149 161 175 158 128 89 111 108 103 95 90 85 80 76 67 58 45 34 35 34 28 27 21 15 10 9 7 358 353 350 348
174 176 170 171 174 172 176 176 174 171 164 156 157 159 165 162 138 113 105 103 100 98 97 96 86 77 67 56 48 38 35 38 33 28 18 10 6 6 359 352 351 347 342
172 176 177 177 181 178 173 172 168 162 152 144 145 149 152 150 146 138 128 119 114 111 105 102 101 90 76 60 48 43 44 42 34 21 13 8 3 355 346 343 340 340 335
174 175 181 182 175 169 164 157 149 147 145 142 144 146 151 150 144 138 134 129 120 114 110 105 105 102 93 80 64 53 49 42 30 18 7 1 356 349 343 339 338 334 332
178 181 180 174 161 156 160 155 153 153 150 149 153 154 156 150 142 140 135 129 124 118 110 100 95 90 82 74 68 64 58 41 20 8 356 349 345 339 333 329 328 327 325
178 182 180 170 160 162 165 161 155 151 151 153 153 153 152 146 143 138 133 126 119 114 109 103 98 93 83 73 71 71 64 47 22 5 354 335 329 323 322 324 324 324 322
177 173 169 166 165 165 163 156 150 148 147 150 152 150 146 142 141 139 133 127 123 119 114 109 104 94 86 74 81 82 69 48 23 356 337 322 317 318 318 318 316 314 313
168 167 165 160 159 158 156 154 153 150 149 149 148 145 141 139 139 139 135 130 128 124 117 110 102 95 89 87 91 82 58 29 1 344 329 312 311 313 315 308 308 307 306
Height
1493 1494 1494 1493 1493 1493 1493 1493 1492 1491 1490 1489 1488 1486 1485 1484 1483 1482 1482 1482 1482 1482 1482 1483 1483 1484 1485 1485 1486 1487 1488 1490 1490 1491 1492 1493 1494 1495 1496 1497 1498 1500 1501
1492 1492 1493 1493 1492 1492 1492 1492 1492 1491 1490 1489 1488 1486 1485 1484 1483 1483 1482 1482 1482 1482 1482 1483 1483 1484 1484 1485 1486 1486 1487 1488 1489 1490 1491 1492 1492 1493 1494 1495 1496 1497 1498
1490 1491 1491 1491 1491 1491 1491 1491 1491 1490 1490 1489 1488 1486 1485 1484 1484 1483 1483 1482 1482 1482 1482 1482 1482 1483 1483 1484 1484 1485 1486 1487 1488 1489 1489 1490 1491 1492 1492 1493 1494 1495 1496
1488 1489 1490 1490 1490 1490 1490 1490 1490 1490 1489 1489 1487 1486 1485 1484 1483 1483 1483 1482 1482 1482 1482 1482 1482 1482 1483 1483 1484 1484 1485 1486 1487 1488 1488 1489 1490 1490 1491 1491 1492 1492 1493
1486 1487 1488 1489 1489 1489 1489 1489 1489 1488 1488 1488 1487 1486 1484 1483 1483 1483 1482 1482 1482 1482 1482 1482 1482 1482 1482 1483 1483 1484 1484 1485 1485 1486 1487 1487 1488 1488 1489 1489 1489 1490 1490
1484 1485 1486 1487 1487 1488 1488 1488 1488 1487 1487 1487 1486 1485 1484 1483 1483 1482 1482 1482 1482 1481 1481 1481 1481 1481 1482 1482 1482 1483 1483 1484 1484 1485 1485 1486 1486 1486 1487 1487 1487 1487 1487
1482 1483 1484 1485 1486 1486 1486 1487 1486 1486 1486 1486 1485 1485 1484 1483 1482 1482 1481 1481 1481 1481 1481 1481 1481 1481 1481 1481 1481 1482 1482 1482 1483 1484 1483 1484 1484 1484 1485 1484 1485 1485 1485
1480 1481 1482 1483 1484 1484 1485 1485 1485 1485 1485 1485 1484 1484 1483 1483 1482 1481 1481 1480 1480 1480 1480 1480 1480 1480 1480 1480 1480 1480 1481 1481 1481 1482 1482 1482 1482 1482 1482 1482 1482 1482 1482
1477 1478 1479 1480 1481 1482 1482 1483 1483 1484 1484 1484 1484 1483 1483 1482 1482 1481 1480 1480 1480 1480 1480 1480 1480 1479 1479 1479 1479 1479 1480 1480 1480 1480 1480 1480 1480 1480 1480 1480 1480 1480 1479
1473 1475 1476 1478 1479 1479 1480 1481 1481 1482 1482 1482 1482 1482 1482 1481 1481 1480 1480 1479 1479 1479 1479 1479 1479 1479 1478 1478 1478 1478 1478 1478 1478 1478 1478 1478 1478 1478 1478 1478 1478 1477 1477
1470 1472 1473 1475 1476 1477 1478 1479 1479 1480 1480 1480 1481 1481 1481 1480 1480 1479 1479 1478 1478 1478 1478 1477 1477 1477 1477 1477 1477 1477 1476 1476 1476 1476 1476 1476 1476 1476 1476 1476 1476 1476 1475
1467 1468 1470 1471 1473 1474 1475 1476 1477 1477 1478 1478 1479 1479 1479 1479 1478 1478 1477 1477 1477 1476 1476 1476 1476 1476 1475 1475 1475 1475 1475 1474 1474 1474 1474 1474 1474 1474 1474 1473 1473 1473 1473
1463 1465 1466 1468 1469 1471 1472 1473 1474 1474 1475 1476 1476 1477 1477 1477 1476 1476 1476 1475 1475 1475 1474 1474 1474 1474 1474 1474 1473 1473 1473 1472 1472 1472 1472 1472 1472 1472 1472 1471 1471 1470 1470
1459 1461 1462 1464 1466 1467 1468 1469 1470 1471 1472 1473 1473 1474 1474 1474 1474 1474 1473 1473 1473 1473 1473 1472 1473 1472 1472 1472 1472 1472 1471 1471 1471 1471 1470 1470 1470 1470 1469 1469 1468 1468 1467
1455 1457 1458 1460 1462 1463 1464 1466 1467 1468 1469 1470 1470 1471 1471 1472 1472 1472 1471 1471 1471 1471 1471 1471 1471 1471 1470 1470 1470 1470 1470 1470 1469 1469 1468 1468 1467 1467 1467 1466 1465 1465 1464
1450 1452 1454 1456 1458 1459 1461 1462 1463 1465 1466 1467 1467 1468 1468 1469 1469 1469 1469 1469 1469 1469 1469 1469 1469 1469 1469 1468 1468 1468 1468 1467 1467 1467 1466 1466 1465 1464 1464 1463 1462 1462 1461
1445 1447 1449 1451 1453 1455 1456 1458 1459 1461 1462 1463 1464 1465 1465 1466 1466 1466 1466 1467 1467 1467 1467 1467 1467 1467 1467 1467 1466 1466 1466 1466 1465 1465 1464 1463 1463 1462 1461 1460 1460 1459 1458
1440 1442 1444 1446 1448 1450 1452 1454 1456 1457 1458 1459 1460 1461 1462 1463 1463 1464 1464 1464 1464 1464 1464 1464 1465 1465 1465 1465 1464 1464 1464 1463 1463 1462 1462 1461 1461 1460 1459 1458 1457 1456 1455
1435 1437 1439 1442 1444 1446 1448 1450 1452 1453 1454 1455 1456 1457 1458 1459 1460 1460 1461 1461 1461 1462 1462 1462 1463 1463 1463 1463 1462 1462 1462 1461 1461 1460 1460 1459 1458 1457 1456 1456 1454 1453 1452
1430 1432 1435 1437 1439 1441 1443 1445 1447 1449 1450 1451 1452 1453 1455 1456 1456 1457 1458 1458 1459 1459 1460 1460 1460 1460 1460 1460 1460 1460 1460 1459 1458 1458 1457 1457 1456 1455 1454 1453 1452 1450 1449
1425 1427 1429 1432 1434 1436 1438 1440 1442 1445 1446 1446 1448 1450 1451 1452 1453 1454 1455 1455 1456 1457 1457 1458 1458 1458 1458 1458 1458 1458 1457 1457 1456 1456 1455 1454 1453 1452 1451 1450 1449 1447 1446
1420 1422 1424 1426 1428 1431 1433 1436 1438 1439 1441 1442 1444 1446 1447 1449 1450 1451 1452 1453 1453 1454 1455 1455 1456 1456 1456 1455 1455 1455 1454 1454 1453 1453 1452 1451 1450 1449 1448 1446 1445 1444 1442
1415 1417 1419 1421 1424 1426 1429 1431 1433 1435 1436 1438 1440 1442 1444 1445 1446 1448 1449 1450 1451 1451 1452 1453 1453 1453 1453 1453 1452 1452 1452 1451 1450 1449 1448 1447 1446 1445 1444 1443 1441 1440 1439
1411 1413 1415 1417 1419 1421 1424 1426 1428 1430 1432 1434 1436 1438 1440 1442 1443 1445 1446 1447 1448 1449 1449 1450 1450 1450 1450 1450 1449 1449 1448 1448 1447 1446 1445 1443 1442 1441 1440 1439 1437 1436 1435
1406 1408 1410 1412 1414 1417 1419 1421 1424 1426 1428 1430 1432 1434 1436 1438 1440 1441 1443 1444 1445 1446 1446 1447 1447 1447 1446 1446 1446 1445 1445 1444 1443 1442 1441 1439 1438 1437 1435 1434 1433 1431 1430
1401 1403 1406 1408 1410 1412 1415 1417 1420 1422 1424 1426 1429 1430 1432 1434 1436 1438 1439 1440 1441 1442 1443 1443 1443 1443 1443 1442 1442 1442 1441 1440 1439 1438 1436 1435 1433 1432 1431 1429 1428 1427 1425